User: anonymous   Login
Location: Newark
(52.4787°S, 179.0532°W)
Time: 03:51:32
(UTC+00:00)
Language:

Vanguard 2 Rocket - Orbit

View from above orbital plane
View from above orbital plane
View from above satellite
View from above satellite

Ground track
Ground track

The orbit data is extracted from the following two-line orbital elements,

1    12U 59001B   19325.28093771  .00000039  00000-0  30167-4 0  9998
2    12  32.9012   2.7846 1666052  56.2363 318.5978 11.44315309498597
Epoch (UTC): 21 November 2019 06:44:33
Eccentricity: 0.1666052
inclination: 32.9012°
perigee height: 554 km
apogee height: 3326 km
right ascension of ascending node: 2.7846°
argument of perigee: 56.2363°
revolutions per day: 11.44315309
mean anomaly at epoch: 318.5978°
orbit number at epoch: 49859

The dashed part of the orbit path shows where the satellite is in the earth's shadow,  

DLR